SPACEBEE-20 (46301 NORAD) Tracking and Keplerian Element Data

This shows tracking and keplerian element data for the satellite.

Feedback or suggestion? Click here.




ElementValue
Catalog46301
NameSPACEBEE-20
Epoch Orbit1326
Epoch Day335.6326906
Epoch Year2020
RAAN47.1781
Inclination97.5119
Eccentricity0.0001149
Argument of Perigee65.3239
Mean Anonmoly294.8111
Mean Motion15.11006593
Decay Rate5.613E-05
L11 46301U 20061AF 20335.63269060 .00005613 00000-0 33978-3 0 9996
L22 46301 97.5119 47.1781 0001149 65.3239 294.8111 15.11006593 13268

Live tracking and technical data element details for SPACEBEE-20 (NORAD 46301). SPACEBEE-20 can be tracked NOW for your location showing map with azimuth and elevation plus other details from your city location.

Track the satellite on the map from your city or location and see movement details for azimuth, elevation, latitude, longitude, range, height, and movement on the map or in text.







IsCatalogInMostPopularTable: catalog: 46301, numindb: 16
Update: records affected: 1



GetName: 46301 SPACEBEE-20

Hit Count: updated at: Tue, 01 Dec 2020 21:38:57 GMT